Lapse_Rate
6.5 6.4 6.3 6.3 6.5 6.5 6.3 6.3 6.2 6.5 6.7 6.6 6.4 6.2 6.0 5.9 5.9 5.8 5.7 5.8 5.9 6.0 6.1 6.1 6.1 6.0 5.8 5.8 5.8 5.8 5.8 5.7 5.6 5.6 5.6 5.6 5.6 5.6 5.6 5.6 5.6 5.6 5.5 5.5
6.0 6.1 6.3 6.3 6.1 6.1 6.1 6.1 6.0 6.3 6.5 6.8 6.3 6.2 6.1 5.9 5.8 5.7 5.8 5.9 5.9 5.8 5.8 5.8 5.7 5.6 5.5 5.5 5.5 5.5 5.5 5.5 5.5 5.5 5.5 5.7 5.8 5.8 5.8 5.7 5.7 5.6 5.5 5.5
6.1 6.5 6.0 5.2 7.0 7.1 7.3 7.3 7.4 6.8 7.5 6.9 6.6 6.6 6.4 6.1 6.0 5.9 5.7 5.7 5.6 5.5 5.4 5.3 5.2 5.1 5.1 5.1 5.2 5.3 5.3 5.2 5.2 5.2 5.3 5.5 5.7 5.8 5.8 5.7 5.7 5.7 5.6 5.5
6.0 5.8 3.4 6.6 7.0 7.5 7.5 7.7 7.3 7.3 7.3 7.1 6.8 6.5 6.2 6.1 5.9 5.9 5.8 5.6 5.5 5.3 5.1 4.9 4.9 4.9 4.9 5.0 5.0 5.1 5.1 5.1 5.1 5.2 5.3 5.4 5.5 5.8 6.0 6.0 5.9 5.9 5.9 5.7
6.1 5.7 6.3 6.3 7.0 7.5 7.6 7.7 7.5 7.6 7.3 6.8 6.5 6.3 6.1 6.1 6.0 5.9 5.8 5.6 5.4 5.1 4.9 4.7 4.7 4.7 4.8 4.8 4.8 4.9 4.9 5.0 5.0 5.2 5.5 5.6 5.7 5.9 6.1 6.4 6.5 6.4 6.4 6.5
5.6 5.6 4.2 6.7 7.1 7.2 7.2 6.8 7.3 7.2 6.9 6.6 6.4 6.1 5.9 5.8 5.7 5.5 5.4 5.2 5.0 4.9 4.8 4.8 4.7 4.7 4.8 4.9 5.0 5.1 5.2 5.5 5.5 5.5 5.5 5.6 5.8 6.0 6.4 6.6 6.8 6.8 6.7 6.6
5.6 5.8 6.4 6.7 6.7 6.9 6.3 7.0 6.6 6.7 6.5 6.1 5.9 5.8 5.8 5.8 5.6 5.3 5.1 5.0 5.0 5.0 5.0 5.0 5.1 5.2 5.4 5.4 5.3 5.4 5.4 5.4 5.5 5.7 5.9 5.9 6.1 6.2 6.3 6.5 6.6 6.7 6.7 6.7
5.6 5.0 5.2 6.5 6.3 6.3 6.5 6.2 6.1 6.0 6.0 5.9 5.9 5.9 5.8 5.6 5.5 5.3 5.2 5.3 5.2 5.2 5.2 5.3 5.4 5.5 5.6 5.7 5.8 5.9 6.0 6.1 6.2 6.2 6.2 6.1 6.0 6.0 6.2 6.3 6.2 6.3 6.4 6.7
6.8 7.0 6.8 6.6 6.2 6.1 5.9 5.8 5.7 5.5 5.6 5.6 5.5 5.5 5.4 5.4 5.3 5.3 5.4 5.5 5.5 5.5 5.6 5.7 5.9 6.1 6.1 6.2 6.3 6.3 6.3 6.2 6.1 6.0 5.9 5.9 5.9 5.9 6.1 6.3 6.5 6.7 7.0 7.4
6.5 6.4 6.5 6.2 5.8 5.5 5.5 5.5 5.7 5.8 5.6 5.4 5.4 5.4 5.4 5.4 5.3 5.3 5.4 5.5 5.7 5.8 6.0 6.2 6.3 6.4 6.5 6.5 6.4 6.3 6.2 6.2 6.1 6.1 6.1 6.0 6.0 6.0 6.4 6.8 7.2 7.3 7.5 7.6
5.9 5.9 5.8 5.7 5.7 5.6 5.7 5.8 5.8 5.7 5.7 5.6 5.6 5.6 5.5 5.4 5.4 5.5 5.6 5.8 6.0 6.2 6.4 6.5 6.6 6.7 6.7 6.6 6.5 6.4 6.4 6.4 6.3 6.4 6.4 6.6 6.7 6.7 7.0 7.2 7.6 7.7 7.7 7.6
5.6 5.7 5.7 5.6 5.7 5.8 5.8 5.9 6.0 6.0 6.0 5.9 5.7 5.7 5.7 5.7 5.7 5.8 5.9 6.1 6.3 6.4 6.5 6.6 6.6 6.7 6.7 6.7 6.7 6.7 6.6 6.7 6.9 7.1 7.2 7.4 7.5 7.4 7.4 7.4 7.7 7.7 7.6 7.5
6.1 5.8 5.7 5.8 5.9 6.0 6.2 6.2 6.2 6.1 6.0 5.9 5.9 5.9 5.8 5.8 5.9 6.1 6.2 6.3 6.4 6.4 6.4 6.5 6.6 6.6 6.7 6.8 6.9 7.0 7.0 7.2 7.4 7.5 7.8 7.9 8.0 7.8 7.6 7.7 7.7 7.7 7.6 7.6
6.3 6.3 6.4 6.4 6.4 6.3 6.2 6.1 6.1 6.0 6.1 6.1 6.1 6.1 6.1 6.1 6.1 6.1 6.1 6.1 6.1 6.2 6.3 6.4 6.5 6.7 6.8 7.0 7.2 7.3 7.3 7.5 7.8 7.9 7.9 8.0 8.0 7.8 7.8 7.8 7.7 7.7 7.7 7.6
7.0 6.9 6.8 6.6 6.4 6.3 6.2 6.1 6.0 6.0 6.1 6.2 6.2 6.1 6.1 6.0 6.0 5.9 6.0 6.0 6.2 6.3 6.4 6.6 6.8 6.9 7.0 7.1 7.2 7.2 7.0 7.1 7.3 7.7 7.9 7.8 7.8 7.7 7.6 7.7 7.7 7.6 7.6 7.6
6.8 6.6 6.5 6.5 6.4 6.2 6.1 6.0 6.0 6.0 6.1 6.0 6.0 6.0 6.0 6.1 6.2 6.2 6.3 6.4 6.5 6.6 6.7 6.8 6.9 6.9 6.9 6.9 6.7 6.8 6.9 7.0 7.2 7.3 7.4 7.4 7.4 7.5 7.6 7.5 7.5 7.5 7.4 7.5
6.4 6.2 6.1 5.9 5.8 5.7 5.7 5.8 5.8 5.8 5.8 5.8 5.9 6.0 6.2 6.4 6.5 6.7 6.7 6.8 6.7 6.7 6.7 6.6 6.7 6.7 6.7 6.5 6.5 6.7 6.8 7.0 7.0 7.0 6.9 7.0 7.1 7.2 7.3 7.4 7.2 7.3 7.4 7.4
5.7 5.4 5.2 5.2 5.4 5.5 5.7 5.8 5.9 6.1 6.3 6.3 6.3 6.3 6.3 6.3 6.3 6.4 6.4 6.4 6.4 6.4 6.5 6.5 6.4 6.5 6.7 6.5 6.6 6.9 7.1 7.0 6.9 6.7 6.5 6.6 6.7 6.7 6.8 7.0 7.1 7.0 7.1 7.1
5.1 5.3 5.5 5.7 5.8 5.9 6.2 6.2 6.3 6.3 6.3 6.4 6.4 6.4 6.4 6.3 6.4 6.4 6.4 6.5 6.5 6.6 6.3 6.5 6.6 6.7 6.7 6.8 6.9 7.1 7.0 6.7 6.7 6.6 6.4 6.3 6.2 6.3 6.3 6.6 6.7 6.8 6.9 6.9
5.4 5.7 5.8 5.9 5.9 6.0 6.0 6.1 6.1 6.1 6.2 6.2 6.3 6.3 6.4 6.4 6.4 6.4 6.5 6.6 6.5 6.8 6.8 6.8 6.9 6.8 6.7 6.8 6.7 6.7 6.7 6.5 6.5 6.4 6.3 6.1 6.0 5.9 6.0 6.0 6.2 6.4 6.5 6.6
5.6 5.7 5.9 6.0 5.9 5.8 5.8 5.9 6.0 6.1 6.1 6.1 6.1 6.1 6.2 6.3 6.5 6.6 6.7 6.8 6.6 6.8 6.8 6.9 6.9 6.8 6.7 6.7 6.6 6.5 6.4 6.3 6.1 6.0 5.9 5.9 5.8 5.7 5.6 5.6 5.7 5.8 5.9 6.1
5.9 5.9 5.7 5.8 6.1 6.3 6.2 6.1 6.1 5.9 5.9 5.9 6.0 6.0 6.3 6.5 6.6 6.7 6.8 6.8 6.9 6.7 6.7 6.7 6.6 6.5 6.4 6.5 6.5 6.4 6.2 6.0 5.7 5.7 5.8 5.7 5.6 5.5 5.4 5.4 5.4 5.4 5.5 5.5
6.1 6.4 6.5 6.4 6.3 6.0 5.7 5.6 5.8 5.8 5.9 5.9 6.0 6.1 6.3 6.4 6.5 6.7 6.8 6.6 6.8 6.6 6.6 6.6 6.3 6.2 6.0 6.3 6.3 6.2 6.0 5.8 5.7 5.7 5.6 5.5 5.5 5.5 5.4 5.4 5.4 5.5 5.5 5.5
6.6 6.4 6.2 6.0 5.8 5.6 5.7 5.6 5.8 5.6 5.8 5.9 5.9 5.9 6.1 6.4 6.4 6.4 6.7 6.6 6.6 6.5 6.5 6.3 6.2 6.1 6.0 6.2 6.1 6.0 6.0 5.9 5.8 5.8 5.7 5.7 5.6 5.6 5.6 5.5 5.5 5.4 5.4 5.5
6.2 6.1 5.8 5.7 5.6 5.5 5.6 5.6 5.7 5.6 5.7 5.9 5.9 5.9 6.2 6.3 6.6 6.5 6.3 6.3 6.4 6.4 6.3 6.0 6.0 5.8 5.8 6.1 6.0 6.0 6.0 6.0 6.0 5.9 5.7 5.7 5.7 5.7 5.6 5.5 5.5 5.4 5.4 5.4
5.9 5.6 5.5 5.5 5.4 5.4 5.6 5.7 5.8 5.6 5.7 6.0 6.1 6.0 6.0 6.1 6.2 6.3 6.3 6.2 6.1 6.0 6.2 6.0 5.8 5.8 5.8 5.8 5.8 5.8 5.8 5.8 5.8 5.6 5.6 5.6 5.4 5.4 5.4 5.4 5.4 5.4 5.4 5.3
5.5 5.4 5.5 5.3 5.2 5.5 5.5 5.7 6.0 6.1 5.9 6.0 6.3 6.1 5.9 5.7 5.7 5.8 5.8 5.8 5.7 5.8 5.8 5.8 5.8 5.8 5.9 6.0 6.0 5.9 5.8 5.7 5.6 5.6 5.5 5.5 5.5 5.6 5.6 5.7 5.7 5.6 5.5 5.4
Wind_Speed
2 3 2 3 6 10 7 4 6 5 8 7 10 9 6 5 5 4 3 5 4 4 5 5 5 6 6 7 8 7 7 6 5 4 4 3 3 4 4 6 7 10 9 9
2 3 4 1 4 8 7 2 1 3 5 3 2 4 5 6 6 4 4 1 3 3 4 6 6 6 6 6 6 4 5 4 4 4 4 4 3 3 3 4 4 5 7 8
3 3 2 5 10 12 6 3 8 7 9 6 5 7 6 7 5 5 3 3 2 3 4 5 4 3 6 7 6 5 4 4 4 3 3 3 4 4 5 5 4 6 6 7
3 2 2 6 1 2 4 5 5 1 4 5 6 5 2 2 5 3 2 3 2 3 5 6 4 5 5 6 7 6 5 4 3 4 4 4 4 5 4 5 7 6 7 8
4 3 5 1 5 7 7 6 10 7 8 7 7 4 5 3 2 3 2 2 3 3 3 4 7 6 5 7 6 6 7 5 4 4 5 5 7 6 6 5 5 7 7 9
3 5 7 4 2 3 3 5 8 7 10 14 7 4 3 4 2 3 3 2 4 6 3 3 6 5 5 7 7 7 7 7 6 6 6 7 8 7 5 6 6 6 7 8
3 3 8 4 3 3 6 6 4 8 12 13 5 3 7 6 4 2 2 5 5 5 5 6 8 7 7 7 8 8 7 7 5 5 8 9 8 7 7 8 7 7 8 7
3 2 8 3 4 6 3 3 4 4 4 7 9 8 7 7 4 4 6 6 7 7 6 7 9 8 8 6 11 9 10 9 7 7 7 7 9 7 8 8 8 8 8 7
8 5 1 2 3 1 1 4 4 9 8 9 8 4 6 4 4 3 3 4 3 4 6 6 6 5 6 9 10 11 10 11 9 8 7 7 7 7 7 7 7 7 7 7
3 1 2 1 3 3 4 7 7 9 6 4 5 5 6 6 4 4 4 5 4 5 6 6 6 6 4 7 9 8 9 9 8 7 6 5 6 6 6 6 6 6 7 7
2 2 1 2 1 5 8 8 9 8 6 6 6 6 5 4 5 3 2 3 2 3 3 4 5 5 5 7 8 8 8 7 6 5 6 4 6 6 6 6 8 7 7 6
4 2 3 1 6 6 6 7 5 7 7 8 6 6 5 4 2 2 3 4 4 4 3 5 5 6 6 6 7 6 7 6 6 5 4 3 3 3 7 10 14 16 14 9
2 3 5 6 5 4 7 8 7 7 5 5 3 3 3 2 2 4 3 4 4 5 5 6 7 6 6 6 6 6 6 7 6 7 6 4 3 3 4 4 9 13 15 16
5 4 5 2 3 5 8 7 9 7 5 4 2 3 2 2 2 2 3 4 5 4 5 4 5 5 6 6 5 5 6 12 4 4 5 5 5 5 4 4 5 3 10 14
5 4 4 8 6 6 6 4 5 4 2 3 3 2 2 2 1 3 4 5 4 2 4 4 5 6 6 5 5 6 5 5 5 4 4 5 5 5 5 4 4 3 1 3
3 6 6 5 6 4 3 3 4 2 1 1 0 1 2 2 4 4 5 4 2 3 5 4 5 5 5 5 6 4 5 13 10 5 5 6 4 5 3 3 3 3 3 2
4 2 2 2 2 2 2 2 4 3 2 1 4 2 1 2 3 4 4 3 3 5 5 4 6 6 4 4 3 4 3 4 11 5 5 5 5 5 5 2 2 2 1 2
0 1 0 3 5 5 3 3 3 4 3 4 2 2 1 2 4 5 5 5 5 5 5 5 6 5 4 4 5 3 2 3 3 3 4 5 5 6 6 5 5 3 2 3
1 2 1 3 4 3 3 3 4 3 2 3 2 4 4 4 4 5 3 4 4 4 5 5 13 8 5 7 8 1 3 2 3 3 4 7 6 6 6 6 6 7 6 6
1 1 2 2 2 3 2 3 3 3 3 3 4 4 5 6 4 5 3 5 5 5 7 8 7 5 5 7 11 2 2 2 2 3 1 3 3 4 4 7 6 5 5 5
5 4 4 4 3 3 4 3 3 4 4 3 4 6 6 6 5 5 4 4 5 6 8 12 5 3 5 9 6 3 3 3 2 2 2 2 2 2 3 3 3 3 3 3
4 5 6 5 4 4 4 4 4 4 4 4 5 5 5 6 5 5 5 6 5 13 7 2 3 11 9 16 3 4 3 3 2 2 1 2 2 2 2 2 2 2 2 2
4 4 4 4 5 5 2 4 5 5 5 5 5 5 4 4 3 3 5 5 4 8 6 4 8 15 6 5 4 3 3 3 3 3 3 3 3 3 3 3 3 3 3 3
2 3 3 2 2 2 4 4 4 5 5 6 6 6 5 3 4 4 6 13 16 11 6 6 9 14 13 3 3 3 3 4 4 4 4 8 4 3 4 4 4 4 4 6
3 3 2 3 4 5 5 5 3 5 5 6 7 7 7 5 6 5 3 5 14 12 4 12 16 16 3 2 3 4 4 4 4 4 4 4 4 4 4 4 5 5 4 5
2 3 3 5 5 4 4 2 4 5 3 5 6 5 5 5 5 7 5 10 6 11 7 4 3 5 5 3 4 4 4 4 5 3 5 5 5 5 5 5 5 5 5 7
4 8 2 3 4 5 5 6 4 7 6 6 8 6 5 5 6 8 10 6 6 6 6 6 6 9 5 5 5 5 5 5 8 5 5 5 5 6 6 6 7 10 11 11
Wind_Direction
85 64 79 173 165 183 189 189 168 231 191 217 197 191 179 160 145 131 89 104 57 58 47 27 20 27 20 17 10 1 1 358 346 325 300 264 238 235 232 216 214 206 199 198
334 108 66 260 207 194 212 226 37 108 266 202 150 133 160 168 157 153 147 158 111 53 20 26 19 7 1 1 358 358 350 336 328 334 335 307 286 227 204 201 194 180 185 180
250 38 31 334 223 182 186 196 143 180 213 154 161 166 176 178 164 163 207 233 198 34 13 351 313 318 341 336 335 329 319 319 308 290 278 265 271 240 204 192 175 175 160 161
165 22 328 245 160 143 173 212 182 78 147 149 144 117 142 210 151 171 163 47 39 340 339 328 323 322 325 323 312 309 301 283 282 278 269 243 215 233 228 188 182 183 175 175
141 204 306 158 199 165 169 259 182 160 150 132 141 121 59 112 142 110 145 256 252 260 269 312 328 318 302 295 297 294 291 276 254 244 254 232 224 217 209 194 194 184 179 177
116 162 219 251 185 183 139 302 174 158 163 152 155 126 193 117 100 42 33 348 352 338 309 321 326 319 329 309 292 282 266 261 251 229 235 241 231 209 201 203 204 194 189 191
170 229 288 250 152 163 104 245 134 152 156 158 155 203 121 106 57 26 40 359 9 357 349 324 355 345 337 329 307 292 290 285 264 236 240 247 232 216 204 205 196 195 195 188
96 78 276 124 106 166 190 47 105 113 133 131 123 126 119 96 78 44 23 0 11 12 360 346 358 357 348 351 348 335 319 298 270 252 241 245 227 212 205 197 194 191 188 187
183 210 106 51 76 11 337 125 123 129 131 139 131 122 117 112 75 37 24 353 347 5 349 344 350 356 355 334 334 326 313 304 295 270 245 230 213 207 202 193 195 190 188 190
78 190 152 114 69 53 65 102 108 121 108 109 120 101 98 92 63 35 11 10 353 4 4 345 338 338 309 322 330 322 326 319 301 263 255 223 218 210 203 194 193 192 191 194
275 304 36 254 136 122 98 94 92 74 75 89 96 86 81 78 56 37 353 336 348 354 328 312 314 322 325 333 332 342 336 333 329 292 268 229 222 211 209 209 203 198 201 195
218 191 142 136 136 126 106 100 92 105 85 64 84 98 105 98 76 112 6 337 350 331 333 327 339 341 343 338 343 345 349 344 337 329 308 284 242 231 242 220 223 218 208 197
149 87 78 88 64 67 93 99 94 97 111 121 87 97 100 108 359 37 13 342 348 325 318 331 343 339 332 337 347 356 345 326 334 341 328 300 277 252 250 271 283 240 235 216
54 90 78 40 117 79 102 97 98 89 73 79 92 75 89 96 28 11 342 295 295 307 319 320 331 339 327 331 345 349 338 340 325 314 319 317 293 269 252 241 239 262 241 234
33 47 99 110 97 88 90 96 93 90 59 70 33 99 82 92 342 297 295 314 313 291 321 340 339 324 329 334 353 345 346 323 324 317 301 295 306 264 254 242 241 221 268 318
77 69 75 92 110 92 90 72 121 158 153 209 189 206 220 252 283 293 300 316 1 303 299 300 310 292 317 334 352 340 337 343 348 353 340 345 329 313 271 240 230 221 205 219
77 48 66 70 131 147 161 160 155 162 149 216 253 265 314 294 286 292 310 305 282 278 277 259 287 304 306 312 341 312 322 328 346 346 342 339 340 349 340 300 237 213 193 206
86 129 99 163 166 164 185 216 195 181 199 206 185 188 236 229 245 270 281 304 313 312 295 282 282 262 292 308 311 305 322 323 330 342 348 15 31 17 15 17 18 36 76 15
67 122 92 103 152 160 171 192 210 212 229 216 194 247 230 242 244 255 278 297 302 307 290 295 302 333 304 310 322 355 339 4 30 25 28 42 37 29 30 34 31 30 35 43
204 177 165 177 183 173 209 237 225 246 247 216 245 271 274 267 251 257 232 250 242 240 272 277 287 274 273 286 299 155 131 97 73 39 64 38 43 35 28 25 32 26 27 35
230 222 223 221 233 218 214 210 202 251 267 225 232 255 255 266 254 245 254 270 262 262 272 290 311 271 285 288 275 179 159 141 119 97 79 46 11 9 6 9 5 6 7 15
208 217 224 221 208 233 229 217 220 247 253 256 253 251 258 269 255 257 246 239 272 286 285 260 273 288 270 283 104 118 130 140 155 161 195 215 231 257 277 288 291 300 308 306
221 217 215 204 211 228 218 223 233 233 249 253 253 256 247 249 234 242 276 268 269 274 267 244 261 275 288 109 117 130 165 199 222 224 230 228 230 227 232 245 252 253 260 261
222 220 221 221 156 170 254 254 229 237 232 249 252 247 242 253 270 234 249 270 276 292 288 253 261 274 136 144 155 200 215 229 235 239 240 255 227 231 240 244 258 247 248 273
225 241 206 190 220 243 242 252 247 256 244 248 250 248 239 229 220 261 224 248 269 276 288 282 279 275 133 228 212 214 224 225 231 227 229 232 242 233 237 231 237 245 239 236
219 233 230 226 233 236 244 206 239 248 225 256 258 245 239 233 232 253 242 253 233 256 265 252 254 268 265 256 229 229 226 234 243 258 234 224 227 232 234 236 235 240 247 238
258 268 254 268 236 234 233 231 232 253 249 245 254 254 236 238 240 252 248 231 241 246 245 241 244 261 241 234 243 241 233 230 244 220 236 237 228 234 235 234 238 241 241 240